Location: Peterborough
(44.3091°N, 78.3197°W)
Time: 03:43:38
(UTC-04:00)

Tiros 1 despin weight - Pass Details

Date: 27 March 2023
Orbit: 586 x 632 km, 48.2° (Epoch: 08 June)

Event Time Altitude Azimuth Distance (km) Brightness Sun altitude
Rises 03:10:47 0° 291° (WNW) 2,840 - -36.9°
Reaches altitude 10° 03:13:09 10° 284° (WNW) 1,943 - -36.6°
Maximum altitude 03:17:21 42° 214° (SW) 862 - -36.2°
Drops below altitude 10° 03:21:37 10° 143° (SE) 1,964 - -35.7°
Sets 03:24:01 0° 137° (SE) 2,875 - -35.4°
